Tracking 20715 objects as of 26-May-2020
HD Live streaming from Space Station
objects crossing your sky now

TBEX-B

Track TBEX-B now!
10-day predictions
TBEX-B is classified as:


NORAD ID: 44359
Int'l Code: 2019-036W
Perigee: 298.8 km
Apogee: 684.5 km
Inclination: 28.5 °
Period: 94.3 minutes
Semi major axis: 6862 km
RCS: Unknown
Launch date: June 25, 2019
Source: United States (US)
Launch site: AIR FORCE EASTERN TEST RANGE (AFETR)

Uplink (MHz):
Downlink (MHz): 437.485
Beacon (MHz):
Mode: 9600bps GMSK
Call sign: KF6RFX
Status: Active

aabbcc
Your satellite tracking list
Your tracking list is empty




NASA's NSSDC Master Catalog

Two Line Element Set (TLE):
1 44359U 19036W   20147.32153708  .00039075 -54272-5  39785-3 0  9992
2 44359  28.5178 129.6203 0281032 134.2125 228.1918 15.27088481 50702
Source of the keplerian elements: AFSPC